TimeEDT,TemperatureF,Dew PointF,Humidity,Sea Level PressureIn,VisibilityMPH,Wind Direction,Wind SpeedMPH,Gust SpeedMPH,PrecipitationIn,Events,Conditions,WindDirDegrees,DateUTC
12:15 AM,67.8,67.5,99,30.11,2.5,North,3.5,-,N/A,,Clear,10,2013-08-24 04:15:00
12:35 AM,67.6,67.5,99,30.12,3.0,North,6.9,-,N/A,,Clear,10,2013-08-24 04:35:00
12:55 AM,68.2,67.8,99,30.12,5.0,NNE,5.8,-,N/A,,Clear,30,2013-08-24 04:55:00
1:15 AM,68.0,67.5,98,30.12,7.0,NNE,9.2,-,N/A,,Clear,30,2013-08-24 05:15:00
1:35 AM,67.6,66.0,95,30.12,10.0,NNE,8.1,16.1,N/A,,Clear,30,2013-08-24 05:35:00
1:55 AM,67.1,65.3,94,30.12,10.0,NNE,9.2,-,N/A,,Clear,30,2013-08-24 05:55:00
2:15 AM,67.1,65.3,94,30.12,10.0,NNE,6.9,-,N/A,,Clear,20,2013-08-24 06:15:00
2:35 AM,66.2,64.6,94,30.12,10.0,NNE,9.2,-,N/A,,Clear,20,2013-08-24 06:35:00
2:55 AM,66.2,64.6,94,30.13,10.0,NNE,9.2,16.1,N/A,,Clear,20,2013-08-24 06:55:00
3:15 AM,65.5,63.9,94,30.13,10.0,NNE,8.1,-,N/A,,Clear,30,2013-08-24 07:15:00
3:35 AM,65.3,63.0,92,30.14,10.0,NE,6.9,-,N/A,,Clear,40,2013-08-24 07:35:00
3:55 AM,64.9,62.2,91,30.15,10.0,NNE,9.2,-,N/A,,Clear,20,2013-08-24 07:55:00
4:15 AM,64.2,61.3,90,30.15,10.0,North,8.1,-,N/A,,Clear,10,2013-08-24 08:15:00
4:35 AM,63.9,61.0,90,30.15,10.0,NNE,6.9,-,N/A,,Clear,30,2013-08-24 08:35:00
4:55 AM,63.5,61.0,91,30.17,10.0,NE,4.6,-,N/A,,Clear,40,2013-08-24 08:55:00
5:15 AM,63.5,60.8,91,30.17,10.0,NNE,3.5,-,N/A,,Mostly Cloudy,30,2013-08-24 09:15:00
5:35 AM,63.5,60.8,91,30.19,10.0,NE,5.8,-,N/A,,Overcast,40,2013-08-24 09:35:00
5:55 AM,63.5,60.8,91,30.19,10.0,NNE,6.9,-,N/A,,Overcast,20,2013-08-24 09:55:00
6:15 AM,63.5,60.8,91,30.19,10.0,NNE,5.8,-,N/A,,Scattered Clouds,20,2013-08-24 10:15:00
6:35 AM,62.6,60.1,91,30.20,10.0,NNE,4.6,-,N/A,,Clear,20,2013-08-24 10:35:00
6:55 AM,62.2,60.1,93,30.21,10.0,NNE,5.8,-,N/A,,Clear,20,2013-08-24 10:55:00
7:15 AM,62.6,60.3,92,30.22,10.0,NNE,8.1,-,N/A,,Clear,30,2013-08-24 11:15:00
7:35 AM,62.6,60.4,93,30.22,10.0,NNE,8.1,-,N/A,,Clear,30,2013-08-24 11:35:00
7:55 AM,63.0,60.8,93,30.24,10.0,NNE,5.8,-,N/A,,Scattered Clouds,30,2013-08-24 11:55:00
8:15 AM,63.7,61.2,91,30.25,10.0,NE,8.1,-,N/A,,Overcast,50,2013-08-24 12:15:00
8:35 AM,65.1,62.4,91,30.25,10.0,NE,5.8,-,N/A,,Mostly Cloudy,50,2013-08-24 12:35:00
8:55 AM,66.2,62.6,88,30.25,10.0,North,8.1,-,N/A,,Scattered Clouds,10,2013-08-24 12:55:00
9:15 AM,67.3,62.8,85,30.26,10.0,NNE,8.1,-,N/A,,Scattered Clouds,30,2013-08-24 13:15:00
9:35 AM,67.8,62.1,82,30.26,10.0,NE,6.9,-,N/A,,Scattered Clouds,40,2013-08-24 13:35:00
9:55 AM,69.1,62.4,79,30.26,10.0,NNE,9.2,-,N/A,,Scattered Clouds,30,2013-08-24 13:55:00
10:15 AM,70.7,61.9,74,30.26,10.0,NE,8.1,-,N/A,,Scattered Clouds,40,2013-08-24 14:15:00
10:35 AM,70.5,61.5,73,30.27,10.0,NE,6.9,-,N/A,,Scattered Clouds,40,2013-08-24 14:35:00
10:55 AM,72.5,61.7,69,30.28,10.0,NNE,9.2,-,N/A,,Scattered Clouds,20,2013-08-24 14:55:00
11:15 AM,72.9,61.9,68,30.27,10.0,NE,5.8,9.2,N/A,,Scattered Clouds,40,2013-08-24 15:15:00
11:35 AM,74.3,60.8,63,30.27,10.0,NNE,8.1,-,N/A,,Scattered Clouds,30,2013-08-24 15:35:00
11:55 AM,74.8,60.3,60,30.27,10.0,NE,4.6,-,N/A,,Clear,50,2013-08-24 15:55:00
12:15 PM,75.4,61.0,61,30.27,10.0,NNE,10.4,-,N/A,,Clear,20,2013-08-24 16:15:00
12:35 PM,76.1,61.0,59,30.27,10.0,North,9.2,-,N/A,,Clear,10,2013-08-24 16:35:00
12:55 PM,76.3,60.4,58,30.27,10.0,NNE,6.9,-,N/A,,Clear,30,2013-08-24 16:55:00
1:15 PM,77.0,61.3,58,30.26,10.0,NNE,9.2,-,N/A,,Clear,30,2013-08-24 17:15:00
1:35 PM,77.0,59.5,55,30.26,10.0,NE,8.1,-,N/A,,Clear,50,2013-08-24 17:35:00
1:55 PM,77.9,58.5,51,30.26,10.0,NE,10.4,-,N/A,,Clear,50,2013-08-24 17:55:00
2:15 PM,78.1,58.3,50,30.26,10.0,East,8.1,-,N/A,,Clear,80,2013-08-24 18:15:00
2:35 PM,78.6,58.3,50,30.26,10.0,NNE,10.4,-,N/A,,Clear,30,2013-08-24 18:35:00
2:55 PM,79.3,58.3,48,30.26,10.0,NE,9.2,20.7,N/A,,Clear,40,2013-08-24 18:55:00
3:15 PM,79.7,58.6,48,30.26,10.0,ENE,9.2,-,N/A,,Clear,60,2013-08-24 19:15:00
3:35 PM,79.3,58.1,48,30.25,10.0,East,9.2,-,N/A,,Clear,80,2013-08-24 19:35:00
3:55 PM,79.5,58.5,48,30.25,10.0,East,9.2,16.1,N/A,,Clear,90,2013-08-24 19:55:00
4:15 PM,79.9,59.4,49,30.25,10.0,NE,8.1,-,N/A,,Clear,40,2013-08-24 20:15:00
4:35 PM,79.3,58.6,49,30.25,10.0,East,6.9,-,N/A,,Clear,80,2013-08-24 20:35:00
4:55 PM,78.4,58.8,51,30.25,10.0,East,6.9,-,N/A,,Scattered Clouds,80,2013-08-24 20:55:00
5:15 PM,79.9,59.5,50,30.25,10.0,NE,5.8,-,N/A,,Scattered Clouds,40,2013-08-24 21:15:00
5:35 PM,79.3,58.1,48,30.25,10.0,NNE,8.1,-,N/A,,Scattered Clouds,30,2013-08-24 21:35:00
5:55 PM,79.3,58.1,48,30.25,10.0,NE,6.9,-,N/A,,Clear,50,2013-08-24 21:55:00
6:15 PM,79.2,58.6,49,30.25,10.0,NE,8.1,-,N/A,,Scattered Clouds,40,2013-08-24 22:15:00
6:35 PM,78.1,58.1,50,30.25,10.0,ENE,5.8,-,N/A,,Scattered Clouds,60,2013-08-24 22:35:00
6:55 PM,77.0,59.2,54,30.25,10.0,NE,3.5,-,N/A,,Scattered Clouds,40,2013-08-24 22:55:00
7:15 PM,76.1,59.2,56,30.25,10.0,NE,4.6,-,N/A,,Clear,50,2013-08-24 23:15:00
7:35 PM,74.3,59.5,60,30.26,10.0,Calm,Calm,-,N/A,,Clear,0,2013-08-24 23:35:00
7:55 PM,72.9,60.4,65,30.26,10.0,NNE,3.5,-,N/A,,Clear,20,2013-08-24 23:55:00
8:15 PM,72.5,60.8,67,30.26,10.0,North,3.5,-,N/A,,Clear,10,2013-08-25 00:15:00
8:35 PM,70.5,59.9,69,30.27,10.0,NNE,3.5,-,N/A,,Clear,20,2013-08-25 00:35:00
8:55 PM,69.1,59.5,72,30.27,10.0,NNE,3.5,-,N/A,,Clear,30,2013-08-25 00:55:00
9:15 PM,67.5,59.4,75,30.28,10.0,NE,3.5,-,N/A,,Clear,40,2013-08-25 01:15:00
9:35 PM,68.2,59.4,73,30.29,10.0,Calm,Calm,-,N/A,,Clear,0,2013-08-25 01:35:00
9:55 PM,67.1,59.7,77,30.29,10.0,NNE,3.5,-,N/A,,Clear,30,2013-08-25 01:55:00
10:15 PM,66.2,59.0,78,30.30,10.0,NNE,3.5,-,N/A,,Scattered Clouds,20,2013-08-25 02:15:00
10:35 PM,66.6,58.8,76,30.30,10.0,NNE,3.5,-,N/A,,Clear,20,2013-08-25 02:35:00
10:55 PM,65.8,59.0,79,30.31,10.0,NNE,3.5,-,N/A,,Clear,20,2013-08-25 02:55:00
11:15 PM,65.3,58.5,78,30.31,10.0,Calm,Calm,-,N/A,,Clear,0,2013-08-25 03:15:00
11:35 PM,65.3,58.8,80,30.32,10.0,North,4.6,-,N/A,,Clear,10,2013-08-25 03:35:00
11:55 PM,63.9,58.6,83,30.32,10.0,North,3.5,-,N/A,,Scattered Clouds,10,2013-08-25 03:55:00